Location: Gandikunta
(16.3784°N, 80.8378°E)
Time: 20:05:45
(UTC+00:00)

Cosmos 1844 Rocket - Pass Details

Date: 19 May 2025
Orbit: 822 x 845 km, 71.0° (Epoch: 21 June)

Event Time Altitude Azimuth Distance (km) Brightness Sun altitude
Exits shadow 21:50:45 22° 141° (SE) 1,713 4.3 -29.4°
Maximum altitude 21:52:59 30° 103° (ESE) 1,452 4.2 -28.9°
Drops below altitude 10° 21:57:47 10° 44° (NE) 2,438 6.0 -28.0°
Sets 22:00:29 0° 33° (NNE) 3,377 6.9 -27.5°
